{"data":{"norad_id":60591,"epoch":"2026-09-21T20:00:00.921600Z","epoch_age_seconds":72986,"freshness":"FRESH","line1":"1 60591U 24150J   26264.83334400  .00000637  00000+0  30006-4 0  9996","line2":"2 60591  53.1603 115.1270 0001231  95.8862 264.2281 15.34385283118000","mean_motion":15.34385283,"eccentricity":0.0001231,"inclination_deg":53.1603,"raan_deg":115.127,"arg_perigee_deg":95.8862,"mean_anomaly_deg":264.2281,"bstar":3.0006e-5,"rev_number":11800,"period_min":93.848658218654,"perigee_km":461.90486976394,"apogee_km":463.58909540045,"semimajor_km":6840.8839825822,"source":"CELESTRAK","updated_at":"2026-09-22T09:00:49.272733Z"}}